Regional Weather Roundup
Issued by NWS

Home | Current Version | Previous Version | Text Only | Print | Product List | Glossary Off
Versions: 1 2 3 4 5 6 7 8 9 10 11 12 13 14 15 16 17 18 19 20 21 22 23 24 25 26 27 28 29 30 31 32 33 34 35 36 37 38 39 40 41 42 43 44 45 46 47 48 49 50

368
ASUS45 KTFX 290210
RWRMT
MONTANA REGIONAL WEATHER ROUNDUP
NATIONAL WEATHER SERVICE GREAT FALLS MT
800 PM MDT SAT MAY 28 2016

NOTE: "FAIR" INDICATES FEW OR NO CLOUDS BELOW 12000 FEET WITH NO
SIGNIFICANT WEATHER AND/OR OBSTRUCTIONS TO VISIBILITY.

MTZ001>007-043-290300-
WEST OF THE DIVIDE

CITY           SKY/WX    TMP DP  RH WIND       PRES   REMARKS
KALISPELL      SUNNY     59  33  37 SW8       30.02R
MISSOULA       SUNNY     61  33  35 N7        30.04R
BUTTE          SUNNY     56  29  35 W6        30.06R
MULLAN PASS    SUNNY     44  29  55 VRB5      30.08S
ANACONDA         N/A     55  34  44 N7        30.06R
DEER LODGE       N/A     55  34  44 N3        30.06S
EUREKA           N/A     59  32  36 S9G17     30.02R
HAMILTON         N/A     59  36  41 N12       30.02R
LIBBY            N/A     59  34  38 CALM      30.03S
$$

MTZ008-052>055-290300-
SOUTHWEST MONTANA

CITY           SKY/WX    TMP DP  RH WIND       PRES   REMARKS
BOZEMAN        CLEAR     60  43  53 CALM      30.02R
DILLON         CLEAR     62  29  28 N6        30.02R
W YELLOWSTONE  CLOUDY    46  37  71 CALM      30.14R
ENNIS          PTCLDY    59  39  47 S9        30.09R
$$

MTZ009-010-012-014-046-048-049-054-290300-
EAST SLOPES AND CENTRAL MONTANA

CITY           SKY/WX    TMP DP  RH WIND       PRES   REMARKS
CUT BANK       SUNNY     54  29  38 W18G29    29.97R
GREAT FALLS    CLEAR     58  29  33 W12       29.99R
MALMSTROM AFB  CLEAR     59  28  31 W12       29.99S
HELENA         CLOUDY    62  31  31 NW12      30.00S
CHOTEAU          N/A     55  30  38 SW7G14    30.00S
$$

MTZ011-013-016-021-045-047-050-051-290300-
NORTH CENTRAL MONTANA

CITY           SKY/WX    TMP DP  RH WIND       PRES   REMARKS
HAVRE          CLEAR     61  34  36 W13       29.93R
LEWISTOWN      CLEAR     59  31  34 NW6       30.01R
N BAR RANCH      N/A     55  34  44 NW7       30.04R
CHINOOK          N/A     63  36  36 W8        29.93R
$$

MTZ017>020-022>027-061-062-290300-
NORTHEAST MONTANA

CITY           SKY/WX    TMP DP  RH WIND       PRES   REMARKS
GLASGOW        CLEAR     62  40  44 W7        29.93R
JORDAN           N/A     61  40  45 W7        29.96R
SIDNEY         CLEAR     64  46  52 NW6       29.94R
WOLF POINT     CLEAR     65  43  44 W8        29.93R
PLENTYWOOD       N/A     61  48  63 NW6       29.93R
POPLAR           N/A     64  45  48 NW6       29.93R
$$

MTZ028>42-056>058-290300-
SOUTHCENTRAL AND SOUTHEAST MONTANA

CITY           SKY/WX    TMP DP  RH WIND       PRES   REMARKS
BAKER          MOCLDY    64  41  42 N10       29.99R
BILLINGS       PTCLDY    64  39  39 SW5       30.00S
LIVINGSTON     CLEAR     60  42  51 W8        30.01R
MILES CITY     MOCLDY    68  40  35 N6        29.96R
FORSYTH          N/A     66  43  42 W5        29.96R
$$

REGIONAL REPORTS...DAKOTAS

CITY           SKY/WX    TMP DP  RH WIND       PRES   REMARKS
WILLISTON      CLEAR     61  55  81 S3        29.93R
MINOT          CLOUDY    65  54  67 N8        29.90R
DICKINSON      PTCLDY    60  54  80 N3        29.94R
BEACH            N/A     61  41  48 N7        30.00R
CROSBY         CLOUDY    57  57 100 CALM      29.94S
WATFORD CITY     N/A     63  54  72 CALM      29.94S
BISMARCK       CLOUDY    60  56  86 S3        29.91R
GRAND FORKS    CLOUDY    62  59  90 N6        29.85R
FARGO          LGT RAIN  63  59  87 N7        29.83S FOG
BUFFALO SD       N/A     66  45  46 NW12      29.91R
RAPID CITY     CLOUDY    59  52  77 CALM      29.97S
$$

REGIONAL REPORTS...WYOMING/IDAHO/WASHINGTON

CITY           SKY/WX    TMP DP  RH WIND       PRES   REMARKS
GILLETTE       CLEAR     62  42  47 NE9       30.02R
SHERIDAN       PTCLDY    60  47  61 N5        30.01R
BUFFALO WY       N/A    N/A N/A N/A MISG      30.05R
CODY           CLOUDY    59  43  55 N7        30.03R
YELLOWSTONE LA   N/A     47  29  49 CALM      30.19R
IDAHO FALLS    CLEAR     62  28  27 S12       30.06S
SALMON         SUNNY     63  36  36 NW5       29.97S
BOISE          SUNNY     69  28  21 N8        29.99S
SPOKANE        PTSUNNY   62  33  33 S8        30.01S
$$

REGIONAL REPORTS...ALBERTA

CITY           SKY/WX    TMP DP  RH WIND       PRES   REMARKS
EDMONTON       MOSUNNY   61  41  48 E7        29.84R
CALGARY        MOSUNNY   61  27  27 SW9       29.85R
LETHBRIDGE     MOSUNNY   59  30  33 W24G36    29.91R
MEDICINE HAT   MOSUNNY   63  36  36 W9        29.87R
WATERTON GATE    N/A     54  25  32 SW18G29     N/A
CARDSTON         N/A     55  28  35 W12         N/A
MILK RIVER       N/A     57  30  35 W15         N/A
ONEFOUR          N/A     59  30  33 W12         N/A
$$

REGIONAL REPORTS...SASKATCHEWAN

CITY           SKY/WX    TMP DP  RH WIND       PRES   REMARKS
SWIFT CURRENT  CLOUDY    54  46  76 S6        29.89S
REGINA         MOCLDY    55  54  94 W6        29.90R
SASKATOON      LGT RAIN  54  54 100 S8        29.87S
CYPRESS HILLS    N/A     54  32  43 W8          N/A
VAL MARIE        N/A     61  36  39 W13         N/A
ROCKGLEN         N/A     55  48  76 S7          N/A
ASSINIBOIA       N/A     57  45  62 NE6         N/A
$$




USA.gov is the U.S. government's official web portal to all federal, state and local government web resources and services.